Torna al catalogo

STARLINK-32075

AttivoComunicazioniVLEO
NORAD 60345·PAYLOAD·🇺🇸 United States

Lanciato Aug 2, 2024 da Cape Canaveral Space Force Station

Loading…

Prossimi Passaggi (prossime 24 ore)

TLE

AggiornatoSource: CelesTrak SupGP

Epoca: Sep 14, 2026, 21:31 UTC

1 60345C 24136S   26257.89701389  .00049796  00000+0  14715-2 0  2572
2 60345  53.1584 276.1680 0001296  89.5318 216.4059 15.34359354    18

Traccia STARLINK-32075 in tempo reale con AllMySat

Download on the App Store